User: anonymous   Login
Location: Unspecified
(0.0000°N, 0.0000°E)
Time: 20:29:12
(UTC+00:00)
Language:

Starlink (trailer) - Orbit

View from above orbital plane
View from above orbital plane
View from above satellite
View from above satellite

Ground track
Ground track

The orbit data is extracted from the following two-line orbital elements,

1 44284U 19029BB  19257.85075092 +.00000845 +00000-0 +77294-4 0  9993
2 44284 053.0042 021.3321 0001699 117.9525 242.1635 15.05500605016507
Epoch (UTC): 14 September 2019 20:25:04
Eccentricity: 0.0001699
inclination: 53.0042°
perigee height: 549 km
apogee height: 551 km
right ascension of ascending node: 21.3321°
argument of perigee: 117.9525°
revolutions per day: 15.05500605
mean anomaly at epoch: 242.1635°
orbit number at epoch: 1650

The dashed part of the orbit path shows where the satellite is in the earth's shadow,  

DLR